{"data":{"norad_id":68802,"intl_designator":"2026-089A","name":"STARLINK-37471","alt_names":[],"object_type":"PAYLOAD","status":"ACTIVE","operator":null,"country":"US","launch_date":"2026-04-23","launch_site_code":"AFWTR","launch_vehicle":null,"mission":null,"orbit_class":"UNKNOWN","rcs_meters":null,"size_class":null,"mass_kg":null,"dimensions":null,"purposes":["comms"],"wikipedia_slug":null,"has_3d_model":false,"image_url":null,"decayed_at":null,"tle_current":{"epoch":"2026-05-25T02:56:23.451360Z","epoch_age_seconds":74540,"freshness":"FRESH","line1":"1 68802U 26089A   26145.12249365  .00188591  00000+0  12376-2 0  9991","line2":"2 68802  97.2845 351.7499 0001661  64.9835 295.1602 15.75188231  5065","mean_motion":15.75188231,"eccentricity":0.0001661,"inclination_deg":97.2845,"raan_deg":351.7499,"arg_perigee_deg":64.9835,"mean_anomaly_deg":295.1602,"bstar":0.0012376,"rev_number":506,"period_min":91.417645946086,"perigee_km":342.97903873832,"apogee_km":345.21216440856,"semimajor_km":6722.2326015734,"source":"CELESTRAK","updated_at":"2026-05-25T13:38:22.039751Z"}}}